Temp
6 5 4 4 5 5 5 5 5 5 5 6 6 6 7 7 8 8 8 9 9 10 11 11 12 13 14 15 16 16 16 15 15 12 13 13 13 13 13 13 13 13 12
4 4 4 4 4 4 4 4 4 4 5 5 5 6 6 7 8 8 8 9 9 10 11 12 12 13 14 14 15 16 15 15 14 10 11 11 12 12 12 12 12 12 12
3 3 4 4 3 3 3 4 4 4 5 5 5 6 6 7 7 8 8 9 9 10 10 11 12 12 13 14 14 15 15 14 14 12 10 11 10 11 11 11 11 11 11
3 3 3 3 3 3 4 4 4 4 4 5 5 6 6 7 7 8 8 9 9 10 11 11 12 13 14 14 14 14 13 13 12 11 9 10 9 10 10 10 10 11 11
3 2 2 2 3 4 4 4 4 4 4 4 4 5 6 8 8 8 8 9 9 10 11 11 12 13 14 14 14 13 13 11 10 9 9 8 8 9 9 9 9 9 9
2 2 2 3 3 4 4 4 3 3 3 3 4 4 5 5 7 9 9 9 10 10 10 10 11 11 12 12 12 12 11 10 9 9 9 8 8 9 8 9 8 8 8
2 2 2 3 3 3 3 3 3 3 3 3 4 4 4 5 9 10 9 9 9 8 8 8 8 8 10 10 10 10 9 9 10 10 9 9 8 9 9 8 8 8 8
2 2 2 2 3 3 3 3 3 3 3 3 3 3 4 4 5 6 7 7 6 6 6 7 7 8 8 9 10 10 10 10 11 11 10 9 9 9 9 9 8 8 8
1 1 1 2 2 2 2 3 3 3 3 3 3 3 3 4 5 5 6 5 5 6 6 7 7 8 9 10 9 8 9 9 9 10 9 9 9 9 9 9 8 8 6
1 1 1 1 2 2 2 2 3 3 3 3 3 3 3 4 5 5 5 5 5 5 7 7 8 8 9 9 9 9 8 8 9 8 8 8 9 9 9 9 9 8 7
1 1 1 2 2 2 3 3 3 3 3 3 3 4 3 4 5 6 6 6 5 6 7 7 8 9 9 9 10 10 9 9 8 9 9 8 8 8 8 8 8 8 7
1 1 1 2 2 3 3 4 4 4 4 4 4 4 5 6 6 6 7 7 7 7 7 7 8 10 10 10 9 9 9 9 9 8 8 8 8 8 8 8 7 7 7
1 1 2 2 3 4 4 4 4 4 4 4 4 4 4 6 7 7 7 8 8 7 7 8 8 9 9 8 9 9 9 8 8 8 8 7 7 7 7 7 6 6 5
1 2 3 3 4 5 5 5 6 4 4 4 3 3 4 5 7 8 8 8 8 8 8 7 7 8 8 8 9 8 8 8 8 8 7 7 7 7 6 6 6 5 5
3 3 4 4 5 6 6 5 6 4 5 5 4 5 4 3 3 7 8 8 7 8 8 8 7 6 6 7 7 7 7 7 7 7 7 7 6 6 5 5 4 4 3
4 4 5 5 5 5 5 6 6 6 7 7 7 7 6 6 8 8 8 8 8 8 6 4 4 4 5 5 6 6 7 6 6 6 6 6 5 5 4 4 3 2 2
4 5 5 6 6 6 6 6 5 6 5 5 6 6 6 6 7 6 7 7 6 7 3 3 3 4 5 5 5 5 5 5 5 5 4 4 4 4 3 3 2 2 2
6 7 7 6 7 7 7 6 6 5 4 4 4 5 5 5 5 5 5 6 4 3 2 2 2 3 4 5 5 4 4 4 4 4 3 3 3 2 2 2 2 2 2
7 7 7 7 7 7 7 7 6 5 4 4 4 4 3 4 3 3 3 2 1 1 2 2 2 3 3 4 4 4 3 3 3 3 3 2 2 2 2 2 2 2 2
7 7 7 8 8 8 7 6 6 5 4 3 3 3 3 3 1 1 1 1 1 1 1 1 2 2 3 3 3 3 3 3 3 2 2 2 2 1 1 2 2 2 2
6 7 8 8 8 7 7 6 6 5 4 3 2 2 2 2 1 1 1 1 1 1 2 2 2 2 3 3 3 3 2 2 2 1 1 1 1 1 1 1 2 2 2
8 8 8 8 8 7 7 6 6 5 4 3 3 2 2 1 1 1 1 1 1 1 1 2 2 3 3 2 2 2 1 1 1 1 1 1 1 1 1 1 1 2 2
8 8 8 8 8 7 7 6 6 5 4 3 2 2 1 1 1 1 1 1 2 2 2 3 2 2 2 2 1 1 1 1 1 1 1 1 1 1 1 1 1 1 1
8 8 8 8 8 7 7 6 5 4 4 3 2 2 1 1 0 1 1 2 2 2 3 2 2 1 1 1 1 1 1 1 1 1 0 0 0 0 0 0 0 1 1
9 9 8 8 7 7 6 6 5 4 3 3 2 1 1 1 1 1 1 2 2 2 3 2 2 2 2 1 1 1 1 1 1 0 0 -0 -0 -0 -0 -0 0 1 1
8 8 8 8 7 7 6 5 4 4 3 2 1 1 1 0 1 1 1 1 2 2 2 2 2 1 1 1 1 1 1 0 0 -0 -0 -0 -0 -0 -0 -0 -0 0 1
Height
764 759 753 747 741 735 728 722 715 708 702 697 692 688 684 681 680 679 677 677 676 676 675 676 676 677 678 679 680 681 681 682 684 687 688 692 695 698 702 706 710 713 715
762 756 750 743 737 730 723 716 709 701 695 690 685 680 677 674 672 670 669 669 669 669 669 670 670 671 672 673 673 674 675 676 680 684 686 690 693 697 701 705 708 711 713
761 754 747 740 733 726 718 710 702 695 688 682 677 672 668 665 662 661 661 661 662 663 664 665 665 666 667 667 667 669 669 671 674 676 683 688 693 697 700 703 708 710 712
760 753 746 739 731 723 715 707 700 692 684 677 671 665 660 655 652 652 652 654 656 658 660 661 661 661 661 661 662 663 666 670 673 675 681 688 692 698 698 702 706 707 709
760 753 745 737 729 722 714 706 698 691 682 675 667 660 654 646 644 644 645 649 652 654 655 656 655 655 655 655 657 660 664 668 671 676 680 684 689 697 700 702 704 707 709
759 752 744 736 728 721 713 706 698 690 683 674 667 660 653 646 640 639 642 646 649 651 652 653 653 653 652 653 656 660 664 665 670 676 680 684 691 697 701 702 705 708 709
759 751 744 736 729 722 715 708 700 693 685 678 670 663 656 648 633 636 642 644 648 651 653 654 655 655 655 657 661 665 668 672 675 677 681 684 692 697 699 702 705 707 708
759 752 746 738 731 724 717 710 703 696 689 682 676 670 663 654 647 644 645 648 651 654 657 658 658 659 662 663 666 670 674 679 682 685 687 692 695 698 700 703 705 708 709
760 754 748 741 735 728 721 714 708 702 695 689 683 677 671 665 659 655 655 657 659 662 665 666 667 667 671 672 673 677 682 687 690 692 695 697 700 703 703 704 707 708 709
762 757 751 745 739 733 727 720 715 709 702 697 691 685 681 675 671 668 668 669 669 672 675 675 677 677 680 682 682 685 688 693 696 698 701 703 705 706 705 706 707 707 707
765 759 754 748 743 738 732 726 721 715 710 704 699 695 690 686 685 683 682 679 681 682 682 684 686 687 688 690 692 693 695 698 701 702 704 706 706 707 707 707 707 707 707
768 762 757 752 748 743 738 732 727 722 717 713 709 704 701 699 698 696 695 694 693 690 691 692 692 692 694 696 697 699 700 702 703 705 707 708 708 709 709 708 708 707 707
771 767 762 758 754 749 744 738 733 729 724 721 718 715 713 710 707 705 704 702 700 699 700 700 699 699 700 701 703 704 705 706 707 708 710 712 712 712 711 710 710 709 709
777 773 768 765 760 756 751 747 742 735 732 729 726 724 722 718 717 716 714 712 710 709 708 708 708 708 707 709 709 711 711 711 712 714 715 715 714 713 712 711 709 708 708
785 781 776 772 768 763 759 755 751 746 742 738 736 733 731 730 729 724 722 721 720 718 716 715 715 715 716 716 717 717 717 717 717 718 717 716 716 715 713 711 710 709 710
791 787 784 780 775 769 764 761 758 754 750 748 745 743 742 739 735 732 730 728 727 725 723 725 726 726 725 724 723 722 722 722 721 720 719 718 717 715 714 713 712 712 712
796 791 787 782 778 774 771 768 765 763 760 757 753 751 749 746 743 741 738 736 735 733 733 734 733 732 732 730 730 729 728 726 725 723 721 719 717 717 716 716 716 715 714
798 795 791 787 783 780 777 773 771 769 767 766 763 759 757 753 750 748 745 741 742 742 743 742 741 740 738 736 734 733 731 729 727 725 723 722 720 720 719 718 717 716 714
802 799 796 792 789 786 783 780 778 776 774 773 769 767 765 761 758 756 753 752 753 751 750 748 747 745 743 741 738 737 735 732 730 728 726 724 723 722 721 719 718 717 715
806 804 802 798 795 792 789 787 785 783 782 780 778 776 773 768 765 764 762 761 759 758 756 754 752 749 747 745 742 739 736 734 732 730 728 726 725 723 721 720 719 718 717
808 808 806 803 800 798 796 794 792 791 789 788 785 783 780 776 775 772 770 767 765 763 761 759 757 754 751 748 745 742 739 737 735 732 730 728 726 723 722 721 720 719 719
813 812 810 807 806 804 802 801 799 798 796 794 792 790 786 783 780 778 776 774 772 770 768 764 761 758 755 752 749 746 743 740 737 734 732 729 726 724 723 722 721 721 721
816 814 813 812 811 809 808 806 805 804 802 801 798 795 792 790 788 786 784 781 778 775 772 769 765 762 759 756 753 749 746 742 739 736 733 730 728 726 725 724 724 724 724
818 817 817 816 814 813 813 812 811 809 808 807 803 801 799 797 795 792 789 786 783 780 777 774 770 767 764 760 756 753 749 745 742 738 735 732 730 729 728 727 725 726 726
821 820 820 820 819 819 818 817 816 815 814 812 811 808 806 803 800 797 794 791 788 785 782 778 775 771 768 764 761 757 753 748 744 741 737 735 733 731 729 728 727 728 729
825 824 824 824 824 823 823 822 822 821 820 819 817 814 811 808 805 802 799 796 793 790 787 784 780 777 773 768 765 761 757 752 748 744 741 738 735 733 732 731 731 731 732
Wind_Speed
29 29 27 29 28 28 28 29 30 32 31 30 30 29 28 28 26 25 25 24 23 25 25 24 24 25 23 22 20 19 21 19 6 3 6 8 11 14 15 14 12 8 6
27 26 28 28 29 28 30 31 31 32 31 30 29 29 28 28 27 25 25 24 21 20 21 22 24 17 18 20 21 22 21 20 11 4 7 8 13 18 16 13 9 5 4
25 28 29 29 29 30 31 32 32 31 31 30 28 28 28 28 27 27 26 24 23 21 21 19 19 18 20 21 20 19 18 17 16 13 7 8 12 19 16 10 7 5 3
27 27 27 28 31 32 31 29 30 29 28 27 26 26 27 29 28 27 25 23 23 22 20 20 21 23 23 22 19 17 16 17 16 20 14 12 15 15 14 12 7 5 1
25 25 27 29 30 28 28 29 28 27 26 25 24 23 22 16 21 22 23 21 19 19 17 18 20 20 21 19 18 20 23 21 18 16 11 15 15 8 10 6 5 3 2
24 25 28 28 27 27 27 28 27 27 28 27 26 24 23 21 17 9 15 16 13 15 11 11 11 9 12 17 20 23 21 21 18 11 12 14 9 11 8 6 4 1 1
23 25 26 27 27 27 26 26 27 27 27 27 28 26 27 32 16 9 10 9 15 15 14 15 17 17 17 19 17 16 15 15 16 20 21 18 14 11 10 8 5 3 2
23 24 25 26 25 26 25 26 27 26 26 27 28 27 29 32 30 26 20 21 22 20 18 19 23 25 25 28 30 29 26 23 20 20 19 15 14 12 10 8 5 7 7
22 23 24 25 24 24 24 26 26 24 26 27 28 28 29 36 32 30 29 28 31 28 25 24 26 27 26 27 32 33 31 27 24 24 23 22 19 15 11 11 8 7 1
22 22 22 22 22 22 24 25 25 26 26 27 28 32 31 36 34 33 28 26 28 27 29 26 23 21 22 25 30 28 25 21 22 19 17 15 13 10 10 9 6 4 2
20 20 19 20 20 20 23 25 26 27 29 30 29 34 37 39 37 33 30 29 24 26 27 24 21 21 22 23 22 22 18 15 12 12 11 8 7 8 7 4 2 2 1
19 19 21 20 20 22 24 26 30 28 27 27 26 30 35 34 32 30 28 27 26 28 28 30 24 16 15 15 16 14 11 10 11 13 14 16 16 13 10 8 8 7 6
20 22 22 24 25 26 28 29 29 28 28 25 24 24 24 27 26 27 27 30 33 34 30 30 30 29 28 27 23 20 19 20 20 19 15 12 10 9 9 9 8 5 6
22 23 24 24 25 26 29 31 35 34 27 26 24 22 24 30 30 21 25 28 26 27 28 29 30 31 30 29 28 25 23 21 19 15 11 9 7 6 8 7 9 10 7
25 25 25 25 25 23 21 24 26 25 25 28 25 32 26 26 26 28 26 27 26 26 28 29 30 29 28 27 26 24 21 18 16 12 10 9 9 9 10 12 12 10 7
21 20 20 19 20 19 23 28 34 35 31 30 29 31 31 30 28 25 24 25 26 29 33 26 25 24 24 23 23 21 18 16 14 13 12 12 12 13 11 12 11 8 6
17 20 23 25 23 22 21 21 21 25 33 33 31 28 27 23 24 25 26 25 25 26 26 23 22 22 19 19 17 16 14 14 13 13 13 13 12 11 10 9 9 7 6
20 20 22 20 18 21 23 24 26 24 20 23 29 28 27 25 24 23 23 24 29 28 25 23 22 19 18 16 15 15 14 14 16 14 15 15 13 9 7 8 7 7 8
16 19 19 22 21 22 23 25 26 27 23 20 25 26 25 26 28 29 30 30 23 24 23 21 19 18 18 16 15 15 14 15 15 15 14 12 11 9 8 8 9 9 9
10 14 14 19 19 20 22 23 24 24 23 22 24 24 25 28 29 28 29 27 24 22 22 21 20 19 17 17 17 16 16 17 17 15 13 11 9 9 9 10 10 10 10
7 11 15 18 14 17 19 21 22 22 23 24 24 21 21 25 24 25 25 25 24 22 21 21 21 21 20 20 21 19 17 16 16 13 13 10 9 11 10 9 8 7 6
12 12 15 14 14 17 19 20 21 21 21 22 21 22 23 24 23 24 24 22 21 20 20 20 21 21 19 19 21 19 19 17 16 15 12 11 12 11 10 9 8 7 7
9 14 12 14 16 18 19 19 19 20 20 20 20 21 22 21 20 20 21 22 22 22 22 21 22 24 22 19 20 20 19 17 15 13 13 12 11 11 10 8 6 7 7
7 7 8 12 14 16 18 19 18 18 18 18 20 20 19 18 18 19 20 22 22 22 22 22 23 21 23 23 20 20 19 16 14 13 12 11 11 10 9 8 5 6 7
2 7 11 13 16 17 17 18 18 18 18 18 18 18 19 21 22 22 21 21 21 21 21 22 23 22 21 21 22 21 19 17 16 13 12 11 10 10 10 9 8 7 8
9 13 15 15 16 17 17 18 18 18 18 17 17 19 20 21 22 23 24 23 22 21 21 22 22 21 21 22 21 21 20 19 17 16 15 13 12 12 12 11 10 10 9
Wind_Direction
330 327 323 322 322 320 313 309 306 303 299 294 289 284 281 279 273 266 262 262 259 261 261 252 264 265 268 268 266 265 253 232 227 194 169 180 171 175 172 168 165 172 186
330 329 325 322 326 324 317 313 310 304 301 295 291 284 279 274 269 263 260 257 259 260 246 257 257 256 258 260 258 259 260 251 188 153 148 150 167 170 163 159 165 199 207
332 328 327 328 327 321 318 316 315 313 308 303 294 285 279 273 267 259 255 251 250 252 257 262 270 271 269 265 261 257 253 225 195 163 133 155 151 161 150 149 156 146 131
331 330 329 328 325 323 323 327 328 326 322 319 313 303 290 278 266 258 249 247 245 247 248 256 260 255 254 256 249 232 196 168 153 132 115 122 137 155 154 148 134 115 62
332 332 330 327 326 329 336 338 340 341 340 341 338 338 336 314 272 255 241 237 235 241 249 252 257 255 249 243 220 185 170 158 140 129 129 136 135 136 135 135 129 146 130
336 332 331 333 337 343 345 346 350 353 355 357 360 3 2 359 313 253 229 222 225 229 201 160 150 167 188 179 174 169 170 152 140 128 131 129 118 136 141 134 129 143 157
337 338 342 341 344 350 352 355 359 359 2 6 11 16 21 20 0 164 188 180 168 151 141 130 119 108 123 125 123 124 123 133 144 143 133 127 137 152 150 139 150 146 139
342 345 345 346 350 355 359 2 5 7 12 16 17 25 33 38 59 88 116 113 107 103 104 101 107 109 112 116 115 108 102 101 109 114 113 121 123 124 130 130 144 153 131
352 348 347 352 354 359 5 9 10 15 22 25 26 31 39 45 62 73 86 85 87 88 93 94 100 106 113 116 112 105 101 98 100 101 101 102 102 98 103 115 110 143 83
355 352 358 5 7 6 14 18 21 28 30 32 33 35 40 52 65 65 69 76 79 80 87 86 86 100 117 119 116 113 105 112 115 112 108 110 110 107 98 93 111 129 149
1 6 14 22 20 35 39 35 34 34 35 36 36 41 46 54 62 72 73 74 70 75 76 75 84 97 103 105 106 107 109 121 115 114 115 116 107 104 97 72 17 35 99
13 21 25 38 42 46 45 41 41 36 32 30 31 38 47 52 56 58 59 62 66 70 75 79 80 99 107 104 100 99 108 122 121 117 107 103 99 86 74 63 68 62 47
27 27 37 46 54 55 48 45 37 32 26 23 27 29 31 54 59 63 58 64 76 73 78 87 92 95 95 91 97 102 105 106 106 99 102 101 93 93 84 73 54 29 27
36 36 52 47 51 55 56 48 32 19 18 23 28 33 42 46 70 73 76 83 81 81 83 82 81 88 90 91 90 88 86 88 92 92 95 102 89 66 53 43 27 10 13
52 48 47 45 40 35 32 29 29 41 48 57 60 58 54 50 57 75 81 80 81 82 82 77 68 64 68 73 74 73 74 73 72 74 75 68 59 48 44 26 21 24 43
37 29 28 21 16 23 46 60 62 65 74 73 75 76 71 70 76 81 85 86 83 82 75 61 56 57 59 60 61 58 56 56 53 51 47 40 31 28 31 26 27 32 29
8 4 6 13 33 57 63 63 60 64 58 65 70 68 66 67 71 77 80 85 84 83 66 60 60 58 57 56 55 55 51 46 44 40 30 25 22 28 33 34 33 37 30
3 8 11 24 52 63 66 65 65 55 46 45 55 60 59 62 64 68 77 81 64 63 59 56 56 55 53 53 50 42 41 39 35 32 33 27 27 25 24 30 33 32 31
16 22 36 52 62 69 71 70 67 63 54 47 53 55 59 67 67 65 66 65 57 55 56 54 51 50 47 46 47 40 40 32 26 22 19 17 15 23 28 29 36 38 41
22 18 39 40 51 62 70 70 68 64 58 55 54 53 57 61 56 55 59 60 59 56 52 51 50 49 47 44 35 30 25 21 20 19 14 17 24 34 34 32 34 33 29
46 39 38 42 64 78 79 77 75 72 66 61 57 56 59 63 59 57 54 50 49 49 49 49 45 42 41 37 28 23 22 21 21 18 16 22 24 24 24 27 24 27 39
58 32 24 53 75 79 78 78 78 75 70 65 60 58 58 61 60 57 51 50 54 55 50 48 46 41 36 31 25 27 24 19 17 14 17 18 22 27 29 35 45 53 63
42 24 50 78 86 85 81 79 81 77 70 64 60 58 55 55 56 54 51 53 55 50 47 47 44 42 38 34 30 25 19 14 13 11 16 22 25 28 38 37 52 59 70
344 359 92 91 91 87 87 86 83 78 70 63 58 55 54 55 55 53 52 51 51 49 47 44 42 39 34 32 29 26 23 21 19 21 24 29 27 31 40 44 79 75 85
100 132 122 108 104 100 94 89 82 75 68 62 61 62 63 60 57 53 51 49 48 47 45 40 38 35 32 33 32 29 27 27 28 30 31 40 37 34 46 59 83 97 102
114 121 117 113 106 103 99 92 84 76 72 68 65 62 61 59 55 52 49 47 46 46 43 41 39 37 34 35 31 29 31 32 35 38 40 45 43 54 61 76 92 105 108